Simultaneous Nadir Overpasses (SNOs) Predictions

Prediction of SNOs between METOP-B and NPP Satellite Orbit:

Table of predicted SNOs for the next 14.0 days since TLE Epoch: 9/16/2023
Index Date (METOP-B) Time (METOP-B) Lat,Lon (METOP-B) SZA (METOP-B ) Date (NPP) Time (NPP) Lat,Lon (NPP) SZA (NPP ) Distance(km) Time Diff (sec)
1 09/29/2023 09:14:04 -73.72,-145.15 103.95 09/29/2023 09:12:58 -73.74,-148.26 103.84 97.00 66
2 09/29/2023 10:04:48 73.49, 21.66 75.85 09/29/2023 10:03:39 73.51, 19.57 75.94 66.17 69
3 09/29/2023 10:55:32 -73.39,-171.23 104.24 09/29/2023 10:54:21 -73.40,-172.85 104.17 51.52 71
4 09/29/2023 11:46:15 73.21, -4.30 75.61 09/29/2023 11:45:03 73.22, -5.15 75.66 27.48 72
5 09/29/2023 12:36:59 -73.12, 162.82 104.47 09/29/2023 12:35:45 -73.11, 162.42 104.46 13.05 74
6 09/29/2023 13:27:40 73.03, -30.02 75.47 09/29/2023 13:26:29 73.03, -30.11 75.48 2.85 71
7 09/29/2023 14:18:23 -72.99, 137.21 104.56 09/29/2023 14:17:13 -73.02, 137.24 104.53 3.19 70
8 09/29/2023 15:09:02 73.01, -55.42 75.47 09/29/2023 15:07:58 72.99, -55.39 75.46 2.13 64
9 09/29/2023 15:59:44 -73.01, 111.92 104.51 09/29/2023 15:58:43 -73.03, 111.84 104.49 2.79 61
10 09/29/2023 16:50:24 72.98, -80.81 75.48 09/29/2023 16:49:28 73.00, -80.79 75.50 2.25 56
11 09/29/2023 17:41:06 -72.99, 86.52 104.51 09/29/2023 17:40:12 -72.98, 86.56 104.51 1.18 54
12 09/29/2023 18:31:45 73.00,-106.10 75.53 09/29/2023 18:30:58 73.01,-106.18 75.54 2.65 47
13 09/29/2023 19:22:27 -73.01, 61.23 104.46 09/29/2023 19:21:42 -72.99, 61.16 104.47 2.81 45
14 09/29/2023 20:13:06 72.98,-131.50 75.53 09/29/2023 20:12:26 72.97,-131.47 75.52 1.42 40
15 09/29/2023 21:03:48 -72.98, 35.84 104.46 09/29/2023 21:03:11 -73.00, 35.77 104.43 3.22 37
16 09/29/2023 21:54:28 72.95,-156.90 75.53 09/29/2023 21:53:56 72.98,-156.87 75.56 3.23 32
17 09/29/2023 22:45:10 -72.96, 10.44 104.46 09/29/2023 22:44:40 -72.96, 10.48 104.45 1.59 30
18 09/29/2023 23:35:49 72.97, 177.81 75.58 09/29/2023 23:35:26 72.99, 177.74 75.60 2.81 23
19 09/30/2023 00:26:31 -72.98, -14.85 104.41 09/30/2023 00:26:10 -72.97, -14.91 104.41 2.19 21
20 09/30/2023 01:17:11 72.95, 152.42 75.58 09/30/2023 01:16:55 72.95, 152.45 75.58 1.19 16



Historial Predications of SNOs between METOP-B and NPP
